FW0633 Weather Reports


Display with metric or nautical units.
time (UTC)temp
F
wind
direction
speed
MPH
gust
MPH
rain 1hr
in
rain 24hr
in
rain mn
in
humidity
%
barometer
mb
20260906211505 89 229 2.0 8.0 0.00 0.00 0.00 35 1037.0
20260906210005 88 224 2.0 7.0 0.00 0.00 0.00 35 1037.0
20260906204505 88 269 2.0 6.0 0.00 0.00 0.00 34 1037.0
20260906203026 89 218 2.0 9.0 0.00 0.00 0.00 34 1037.1
20260906201527 88 205 3.0 9.0 0.00 0.00 0.00 35 1037.1
20260906200005 88 217 3.0 9.0 0.00 0.00 0.00 35 1037.3
20260906194505 87 302 1.0 11.0 0.00 0.00 0.00 37 1037.5
20260906193005 85 351 2.0 5.0 0.00 0.00 0.00 40 1037.6
20260906191505 86 71 2.0 7.0 0.00 0.00 0.00 39 1037.7
20260906190005 87 238 2.0 5.0 0.00 0.00 0.00 37 1037.8
20260906184504 86 65 2.0 5.0 0.00 0.00 0.00 38 1038.1
20260906183004 85 5 3.0 6.0 0.00 0.00 0.00 39 1038.3
20260906181526 86 252 1.0 3.0 0.00 0.00 0.00 38 1038.6
20260906180026 84 352 2.0 4.0 0.00 0.00 0.00 40 1038.8
20260906174506 82 55 2.0 7.0 0.00 0.00 0.00 44 1039.0
20260906173005 82 9 2.0 6.0 0.00 0.00 0.00 42 1039.2
20260906171504 81 343 1.0 5.0 0.00 0.00 0.00 43 1039.3
20260906170005 79 30 2.0 7.0 0.00 0.00 0.00 46 1039.4
20260906164504 78 47 2.0 7.0 0.00 0.00 0.00 45 1039.4
20260906163005 78 43 2.0 7.0 0.00 0.00 0.00 45 1039.2
20260906161504 77 80 2.0 6.0 0.00 0.00 0.00 45 1039.1
20260906160005 77 36 2.0 6.0 0.00 0.00 0.00 44 1039.3
20260906154504 77 5 2.0 5.0 0.00 0.00 0.00 46 1039.5
20260906153005 76 355 2.0 6.0 0.00 0.00 0.00 46 1039.5
20260906151504 77 359 1.0 3.0 0.00 0.00 0.00 47 1039.4
20260906150025 75 275 0.0 1.0 0.00 0.00 0.00 49 1039.3
20260906144504 72 0 0.0 0.0 0.00 0.00 0.00 56 1039.4
20260906143004 68 0 0.0 0.0 0.00 0.00 0.00 64 1039.3
20260906141505 66 0 0.0 0.0 0.00 0.00 0.00 66 1039.2
20260906140004 66 0 0.0 0.0 0.00 0.00 0.00 66 1038.9
20260906134504 64 0 0.0 0.0 0.00 0.00 0.00 68 1038.8
20260906133025 64 0 0.0 0.0 0.00 0.00 0.00 66 1038.7
20260906131504 64 0 0.0 0.0 0.00 0.00 0.00 66 1038.4
20260906130025 65 0 0.0 0.0 0.00 0.00 0.00 65 1038.2
20260906124504 65 0 0.0 0.0 0.00 0.00 0.00 63 1038.0
20260906123004 66 0 0.0 0.0 0.00 0.00 0.00 62 1038.1
20260906121504 66 273 0.0 1.0 0.00 0.00 0.00 60 1038.1
20260906120005 66 272 0.0 1.0 0.00 0.00 0.00 61 1038.2
20260906114504 66 272 0.0 1.0 0.00 0.00 0.00 59 1038.2
20260906113004 65 0 0.0 0.0 0.00 0.00 0.00 60 1038.0
20260906111504 66 0 0.0 0.0 0.00 0.00 0.00 59 1037.9
20260906110004 66 269 0.0 1.0 0.00 0.00 0.00 58 1038.0
20260906104504 67 274 0.0 2.0 0.00 0.00 0.00 58 1038.0
20260906103004 66 0 0.0 0.0 0.00 0.00 0.00 58 1038.0
20260906101504 67 0 0.0 0.0 0.00 0.00 0.00 59 1038.0
20260906100004 66 0 0.0 0.0 0.00 0.00 0.00 61 1038.0
20260906094504 66 0 0.0 0.0 0.00 0.00 0.00 62 1038.0
20260906093025 66 0 0.0 0.0 0.00 0.00 0.00 61 1038.1
20260906091504 66 0 0.0 0.0 0.00 0.00 0.00 62 1038.0
20260906090004 66 0 0.0 0.0 0.00 0.00 0.00 63 1038.2
20260906084525 67 0 0.0 0.0 0.00 0.00 0.00 61 1038.2
20260906083025 68 0 0.0 0.0 0.00 0.00 0.00 59 1038.4
20260906081504 68 0 0.0 0.0 0.00 0.00 0.00 59 1038.4
20260906080004 69 0 0.0 0.0 0.00 0.00 0.00 57 1038.4
20260906074525 69 0 0.0 0.0 0.00 0.00 0.00 58 1038.5
20260906073026 69 0 0.0 0.0 0.00 0.00 0.00 58 1038.5
20260906071504 69 0 0.0 0.0 0.00 0.00 0.00 57 1038.6
20260906070003 69 258 0.0 1.0 0.00 0.00 0.00 58 1038.7
20260906064504 69 270 0.0 3.0 0.00 0.00 0.00 57 1038.9
20260906063004 70 277 0.0 1.0 0.00 0.00 0.00 59 1038.7
20260906061504 70 277 0.0 1.0 0.00 0.00 0.00 58 1038.7
20260906060003 70 280 0.0 1.0 0.00 0.00 0.00 58 1039.0
20260906054504 71 0 0.0 0.0 0.00 0.00 0.00 58 1039.0
20260906053024 71 231 0.0 1.0 0.00 0.00 0.00 57 1039.0
20260906051503 71 230 0.0 2.0 0.00 0.00 0.00 57 1039.1
20260906050003 72 0 0.0 0.0 0.00 0.00 0.00 53 1039.0
20260906044503 72 0 0.0 0.0 0.00 0.00 0.00 53 1039.0
20260906043004 72 282 0.0 1.0 0.00 0.00 0.00 55 1039.0
20260906041506 72 0 0.0 0.0 0.00 0.00 0.00 55 1038.7
20260906040007 73 282 0.0 2.0 0.00 0.00 0.00 54 1038.9
20260906034527 73 281 0.0 1.0 0.00 0.00 0.00 54 1038.8
20260906033006 74 257 0.0 1.0 0.00 0.00 0.00 53 1038.6
20260906031505 74 224 0.0 1.0 0.00 0.00 0.00 55 1038.5
20260906030006 74 220 0.0 1.0 0.00 0.00 0.00 54 1038.4
20260906024505 75 224 0.0 1.0 0.00 0.00 0.00 53 1038.3
20260906023027 75 270 0.0 1.0 0.00 0.00 0.00 49 1038.4
20260906021527 76 211 0.0 1.0 0.00 0.00 0.00 49 1038.1
20260906020006 76 235 0.0 1.0 0.00 0.00 0.00 49 1038.2
20260906014505 77 259 0.0 3.0 0.00 0.00 0.00 48 1038.4
20260906013006 77 261 0.0 1.0 0.00 0.00 0.00 47 1038.3
20260906011505 78 270 1.0 4.0 0.00 0.00 0.00 47 1038.3
20260906010005 79 231 1.0 3.0 0.00 0.00 0.00 46 1038.4
20260906004506 80 227 1.0 6.0 0.00 0.00 0.00 47 1038.5
20260906003026 79 214 3.0 8.0 0.00 0.00 0.00 49 1038.6
20260906001506 81 212 3.0 8.0 0.00 0.00 0.00 47 1038.5
20260906000005 82 215 3.0 9.0 0.00 0.00 0.00 45 1038.5
20260905234505 81 223 2.0 5.0 0.00 0.00 0.00 45 1038.4
20260905233005 80 226 1.0 5.0 0.00 0.00 0.00 45 1038.5
20260905231505 80 190 2.0 5.0 0.00 0.00 0.00 49 1038.5
20260905230005 79 198 4.0 9.0 0.00 0.00 0.00 50 1038.6
20260905224505 79 200 3.0 7.0 0.00 0.00 0.00 51 1038.7
20260905223005 79 220 4.0 11.0 0.00 0.00 0.00 51 1038.8
20260905221505 81 196 5.0 15.0 0.00 0.00 0.00 47 1038.8
20260905220005 82 223 4.0 10.0 0.00 0.00 0.00 43 1038.7
20260905214505 83 184 4.0 10.0 0.00 0.00 0.00 42 1038.7
20260905213005 85 217 5.0 13.0 0.00 0.00 0.00 40 1038.8